EA3IR Weather Reports


time (UTC)temp
C
wind
direction
speed
KPH
gust
KPH
rain 1hr
cm
rain 24hr
cm
rain mn
cm
humidity
%
barometer
mb
20260506154620 13 49 9.7 20.9 1.35 1.50 1.35 89 1011.2
20260506154120 13 31 8.0 20.9 1.35 1.50 1.35 89 1011.1
20260506153621 13 34 11.3 14.5 1.35 1.50 1.35 89 1010.9
20260506153119 13 32 14.5 25.7 1.27 1.42 1.27 89 1010.7
20260506152620 13 23 14.5 25.7 1.17 1.35 1.17 88 1010.8
20260506151119 13 316 19.3 30.6 0.30 0.53 0.30 85 1011.1
20260506150620 14 325 14.5 40.2 0.18 0.46 0.18 84 1010.3
20260506150121 15 1 11.3 29.0 0.05 0.43 0.05 82 1010.4
20260506145120 16 34 8.0 16.1 0.00 0.48 0.00 76 1010.4
20260506144619 16 57 6.4 20.9 0.00 0.61 0.00 73 1010.1
20260506144121 16 64 8.0 11.3 0.00 0.69 0.00 73 1010.1
20260506143119 16 108 8.0 19.3 0.00 0.71 0.00 71 1010.1
20260506142620 16 66 6.4 14.5 0.00 0.71 0.00 69 1010.1
20260506142120 16 91 6.4 16.1 0.00 0.74 0.00 69 1010.1
20260506141619 17 89 8.0 16.1 0.00 0.86 0.00 69 1010.3
20260506141120 17 99 8.0 17.7 0.00 0.89 0.00 68 1010.3
20260506140619 17 118 6.4 20.9 0.00 0.89 0.00 67 1010.5
20260506140120 17 72 6.4 14.5 0.00 0.89 0.00 66 1010.5
20260506135620 18 106 6.4 12.9 0.00 0.89 0.00 65 1010.5
20260506135120 18 110 6.4 14.5 0.00 0.89 0.00 66 1010.6
20260506134620 17 87 6.4 16.1 0.00 0.89 0.00 67 1010.6
20260506134121 17 103 6.4 17.7 0.00 0.89 0.00 66 1010.8
20260506133619 18 109 6.4 12.9 0.00 0.89 0.00 67 1010.9
20260506133119 18 117 6.4 12.9 0.00 0.89 0.00 65 1010.9
20260506132619 18 112 6.4 17.7 0.00 0.89 0.00 63 1010.9
20260506132121 18 114 6.4 16.1 0.00 0.89 0.00 65 1010.9
20260506131119 18 111 8.0 20.9 0.00 0.89 0.00 64 1011.1
20260506130620 18 115 8.0 14.5 0.00 0.89 0.00 63 1011.0
20260506130120 18 109 8.0 19.3 0.00 0.89 0.00 64 1011.0
20260506125620 18 107 8.0 16.1 0.00 0.89 0.00 64 1011.1
20260506125120 18 122 8.0 17.7 0.00 0.89 0.00 63 1011.0
20260506124620 18 119 8.0 19.3 0.00 0.89 0.00 62 1011.1
20260506123619 18 95 6.4 14.5 0.00 0.91 0.00 65 1011.2
20260506123120 17 112 8.0 16.1 0.00 0.97 0.00 65 1011.3
20260506122619 17 120 6.4 16.1 0.00 0.99 0.00 67 1011.2
20260506122119 17 122 6.4 12.9 0.00 0.99 0.00 67 1011.3
20260506121619 17 114 8.0 19.3 0.00 0.99 0.00 68 1011.2
20260506121119 16 108 6.4 14.5 0.00 0.99 0.00 70 1011.3
20260506120619 16 115 6.4 12.9 0.00 0.99 0.00 69 1011.3
20260506120119 16 111 4.8 16.1 0.00 0.99 0.00 69 1011.4
20260506115619 17 112 4.8 14.5 0.00 0.99 0.00 71 1011.3
20260506115119 17 131 4.8 14.5 0.00 0.99 0.00 71 1011.3
20260506113120 18 116 6.4 12.9 0.00 0.99 0.00 63 1011.3
20260506111619 19 115 4.8 14.5 0.00 0.99 0.00 62 1011.3
20260506111119 18 108 6.4 16.1 0.00 0.99 0.00 63 1011.4
20260506110619 18 115 6.4 16.1 0.00 0.99 0.00 63 1011.5
20260506110120 18 102 6.4 12.9 0.00 0.99 0.00 66 1011.5
20260506105619 18 112 4.8 17.7 0.00 0.99 0.00 67 1011.5
20260506104620 18 135 4.8 11.3 0.00 0.99 0.00 63 1011.5
20260506104119 19 121 4.8 12.9 0.00 0.99 0.00 62 1011.5
20260506103619 20 122 3.2 12.9 0.00 0.99 0.00 56 1011.6
20260506102621 19 235 1.6 12.9 0.00 0.99 0.00 56 1011.6
20260506102120 18 210 3.2 8.0 0.00 0.99 0.00 58 1011.7
20260506101120 18 193 1.6 8.0 0.00 0.99 0.00 60 1011.8
20260506100121 18 222 3.2 8.0 0.00 0.99 0.00 57 1011.8
20260506095620 19 205 3.2 6.4 0.00 0.99 0.00 58 1011.9
20260506095119 19 150 4.8 9.7 0.00 0.99 0.00 56 1012.0
20260506094120 19 169 1.6 8.0 0.00 0.99 0.00 60 1011.9
20260506093619 18 221 1.6 3.2 0.00 0.99 0.00 64 1011.9
20260506092620 18 259 3.2 6.4 0.00 0.99 0.00 64 1011.9
20260506092120 18 209 3.2 11.3 0.00 0.99 0.00 61 1012.0
20260506091120 18 242 1.6 11.3 0.00 0.99 0.00 63 1011.9
20260506090119 18 147 3.2 9.7 0.00 0.99 0.00 67 1011.7
20260506085619 18 164 3.2 8.0 0.00 0.99 0.00 66 1011.7
20260506084619 17 59 1.6 4.8 0.00 0.99 0.00 65 1011.7
20260506084119 17 81 1.6 4.8 0.00 0.99 0.00 67 1011.7
20260506083120 17 128 3.2 9.7 0.00 0.99 0.00 67 1011.6
20260506082619 18 97 1.6 6.4 0.00 0.99 0.00 66 1011.6
20260506082119 17 34 1.6 3.2 0.00 0.99 0.00 68 1011.6
20260506081619 17 53 3.2 6.4 0.00 0.99 0.00 68 1011.5
20260506081119 17 28 3.2 8.0 0.00 0.99 0.00 70 1011.5
20260506080620 16 34 1.6 6.4 0.00 0.99 0.00 71 1011.6
20260506080119 16 47 1.6 4.8 0.00 0.99 0.00 72 1011.5
20260506073120 16 47 1.6 8.0 0.00 0.99 0.00 74 1011.5
20260506072620 16 12 1.6 4.8 0.00 0.99 0.00 75 1011.5
20260506072119 15 9 3.2 6.4 0.00 0.99 0.00 76 1011.4
20260506071621 15 41 3.2 3.2 0.00 0.99 0.00 77 1011.4
20260506071120 15 15 3.2 4.8 0.00 0.99 0.00 79 1011.5
20260506070619 15 54 3.2 6.4 0.00 0.99 0.00 77 1011.5
20260506070119 15 27 3.2 4.8 0.00 0.99 0.00 79 1011.5
20260506062119 12 256 0.0 1.6 0.00 0.99 0.00 86 1011.2
20260506061619 12 257 0.0 1.6 0.00 0.99 0.00 86 1011.3
20260506061120 12 0 0.0 0.0 0.00 0.99 0.00 87 1011.3
20260506060619 12 256 0.0 1.6 0.00 0.99 0.00 87 1011.3
20260506060120 12 257 0.0 1.6 0.00 0.99 0.00 87 1011.2
20260506051120 11 257 1.6 1.6 0.00 0.99 0.00 86 1010.7
20260506050619 11 222 1.6 4.8 0.00 0.99 0.00 86 1010.7
20260506050119 11 233 1.6 3.2 0.00 0.99 0.00 86 1010.6
20260506045119 11 0 0.0 0.0 0.00 0.99 0.00 85 1010.4
20260506044619 11 252 0.0 3.2 0.00 0.99 0.00 85 1010.4
20260506044120 11 253 0.0 1.6 0.00 0.99 0.00 84 1010.4
20260506043620 11 0 0.0 0.0 0.00 0.99 0.00 85 1010.3
20260506043120 11 0 0.0 0.0 0.00 0.99 0.00 84 1010.4
20260506042619 11 0 0.0 0.0 0.00 0.99 0.00 84 1010.4
20260506042119 11 252 0.0 1.6 0.00 0.99 0.00 84 1010.3
20260506041619 11 252 0.0 3.2 0.00 0.99 0.00 84 1010.3
20260506041119 11 253 0.0 1.6 0.00 0.99 0.00 84 1010.2
20260506040619 11 253 0.0 1.6 0.00 0.99 0.00 84 1010.2
20260506040119 12 252 0.0 3.2 0.00 0.99 0.00 83 1010.2
20260506035619 12 253 0.0 1.6 0.00 0.99 0.00 82 1010.2
20260506035120 12 253 0.0 1.6 0.00 0.99 0.00 81 1010.2
20260506034119 12 253 0.0 1.6 0.00 0.99 0.00 79 1010.2
20260506033620 12 252 0.0 1.6 0.00 0.99 0.00 78 1010.1
20260506033120 12 0 1.6 0.0 0.00 0.99 0.00 77 1010.1
20260506032619 12 265 1.6 4.8 0.00 0.99 0.00 77 1010.1
20260506031619 12 292 1.6 4.8 0.00 0.99 0.00 77 1010.0
20260506031120 12 213 0.0 4.8 0.00 0.99 0.00 76 1009.9
20260506030619 12 212 1.6 1.6 0.00 0.99 0.00 76 1010.1
20260506025120 12 233 4.8 4.8 0.00 0.99 0.00 76 1010.1
20260506024619 12 233 4.8 11.3 0.00 0.99 0.00 77 1010.0
20260506024119 12 233 4.8 11.3 0.00 0.99 0.00 78 1010.0
20260506023619 12 218 6.4 9.7 0.00 0.99 0.00 79 1010.0
20260506023119 12 219 8.0 11.3 0.00 0.99 0.00 80 1009.9
20260506022619 12 216 6.4 11.3 0.00 0.99 0.00 80 1009.9
20260506022119 12 225 6.4 11.3 0.00 0.99 0.00 80 1009.9
20260506021619 12 237 6.4 12.9 0.00 0.99 0.00 80 1009.9
20260506021119 12 242 4.8 11.3 0.00 0.99 0.00 81 1009.9
20260506020620 12 255 4.8 8.0 0.00 0.99 0.00 81 1009.9
20260506020120 12 255 4.8 11.3 0.00 0.99 0.00 81 1010.0
20260506015619 12 251 6.4 11.3 0.00 0.99 0.00 81 1009.9
20260506015121 12 231 6.4 14.5 0.00 0.99 0.00 82 1009.9
20260506014619 12 234 6.4 11.3 0.00 0.99 0.00 82 1009.9
20260506014119 12 233 6.4 11.3 0.00 0.99 0.00 82 1009.9
20260506012619 12 217 4.8 9.7 0.00 0.99 0.00 82 1009.9
20260506012119 12 227 4.8 8.0 0.00 0.99 0.00 83 1010.0
20260506011619 12 229 4.8 9.7 0.00 0.99 0.00 82 1010.0
20260506011119 12 223 4.8 8.0 0.00 0.99 0.00 82 1009.9
20260506010619 12 247 4.8 12.9 0.00 0.99 0.00 81 1010.0
20260506010120 12 251 4.8 8.0 0.00 0.99 0.00 81 1010.0
20260506005619 12 243 4.8 14.5 0.00 0.99 0.00 81 1010.0
20260506005119 12 218 4.8 9.7 0.00 0.99 0.00 80 1010.1
20260506004119 12 252 4.8 11.3 0.00 0.99 0.00 79 1010.2
20260506003120 12 246 4.8 9.7 0.00 0.99 0.00 80 1010.2
20260506002619 12 239 6.4 11.3 0.00 0.99 0.00 81 1010.3
20260506001619 12 245 4.8 8.0 0.00 0.99 0.00 80 1010.3
20260506000619 12 264 3.2 8.0 0.00 0.99 0.00 77 1010.3
20260505235119 12 290 1.6 4.8 0.00 0.99 0.00 77 1010.4
20260505234619 12 296 3.2 4.8 0.00 0.99 0.00 78 1010.5
20260505233619 12 323 3.2 6.4 0.00 0.99 0.00 78 1010.6
20260505233120 12 320 3.2 6.4 0.00 0.99 0.00 77 1010.7
20260505232620 12 317 3.2 11.3 0.00 0.99 0.00 78 1010.8
20260505232119 12 315 3.2 4.8 0.00 0.99 0.00 79 1010.8
20260505231619 12 317 4.8 12.9 0.00 0.99 0.00 79 1010.8
20260505231119 12 313 4.8 12.9 0.00 0.99 0.00 80 1010.8
20260505230619 12 291 6.4 9.7 0.00 0.99 0.00 80 1010.8
20260505230119 12 317 6.4 16.1 0.00 0.99 0.00 80 1010.6
20260505225619 12 315 6.4 12.9 0.00 0.99 0.00 80 1010.6
20260505225119 12 319 6.4 17.7 0.00 0.99 0.00 81 1010.6
20260505224619 12 325 6.4 11.3 0.00 0.99 0.00 81 1010.6
20260505223120 12 324 6.4 9.7 0.00 0.99 0.00 81 1010.8
20260505222120 11 316 4.8 11.3 0.00 1.02 0.00 82 1010.9
20260505221618 12 331 4.8 9.7 0.00 1.02 0.00 82 1010.8
20260505221120 12 323 6.4 11.3 0.00 1.04 0.00 82 1010.9
20260505220619 12 320 6.4 12.9 0.00 1.09 0.00 82 1011.0
20260505220123 12 323 6.4 16.1 0.00 1.09 0.00 82 1011.1
20260505215619 12 324 6.4 19.3 0.00 1.12 1.09 82 1011.2
20260505215120 12 321 6.4 14.5 0.00 1.12 1.09 82 1011.2
20260505214619 12 306 6.4 14.5 0.00 1.12 1.09 82 1011.2
20260505213619 12 323 8.0 16.1 0.00 1.14 1.09 82 1011.3
20260505213119 12 326 8.0 14.5 0.00 1.14 1.09 83 1011.3
20260505212618 12 315 6.4 17.7 0.00 1.14 1.09 83 1011.4
20260505211619 12 323 6.4 14.5 0.00 1.14 1.09 84 1011.4
20260505211120 12 336 4.8 8.0 0.00 1.14 1.09 84 1011.4
20260505210120 12 339 8.0 17.7 0.00 1.14 1.09 85 1011.3
20260505205618 11 4 8.0 17.7 0.00 1.14 1.09 85 1011.1
20260505205119 11 7 6.4 16.1 0.00 1.14 1.09 87 1010.9
20260505204619 11 6 6.4 14.5 0.00 1.14 1.09 87 1010.7
20260505204119 11 11 6.4 12.9 0.00 1.14 1.09 87 1010.7
20260505203619 11 354 6.4 17.7 0.00 1.14 1.09 87 1010.8
20260505203119 11 336 6.4 14.5 0.00 1.14 1.09 88 1010.8
20260505202619 11 313 8.0 14.5 0.00 1.14 1.09 88 1010.9
20260505202119 11 344 8.0 14.5 0.00 1.14 1.09 88 1010.7
20260505201619 11 9 8.0 14.5 0.00 1.14 1.09 88 1010.6
20260505201119 11 332 9.7 16.1 0.03 1.14 1.09 88 1010.8
20260505200619 11 343 9.7 24.1 0.10 1.14 1.09 88 1010.8
20260505200119 11 345 9.7 20.9 0.13 1.14 1.09 88 1010.8
20260505195619 11 354 9.7 22.5 0.15 1.14 1.09 89 1010.8
20260505194620 11 344 8.0 17.7 0.15 1.14 1.09 89 1010.6
20260505194119 12 355 8.0 14.5 0.15 1.14 1.09 89 1010.5
20260505193619 12 1 8.0 20.9 0.15 1.14 1.09 89 1010.6
20260505192619 12 6 8.0 14.5 0.15 1.14 1.09 88 1010.6
20260505192119 12 4 9.7 17.7 0.15 1.14 1.09 88 1010.5
20260505191618 12 12 11.3 20.9 0.15 1.14 1.09 87 1010.6
20260505190619 12 333 6.4 16.1 0.03 1.02 0.99 86 1010.8
20260505190119 12 348 8.0 16.1 0.03 1.02 0.99 86 1010.6
20260505185619 12 357 11.3 22.5 0.03 0.99 0.97 85 1010.6
20260505185119 12 357 9.7 22.5 0.03 0.99 0.97 85 1010.4
20260505184618 13 343 8.0 16.1 0.03 0.99 0.97 85 1010.5
20260505182619 15 19 1.6 8.0 0.03 0.99 0.97 88 1009.8
20260505182120 15 95 1.6 3.2 0.03 0.99 0.97 88 1009.5
20260505181618 15 96 3.2 6.4 0.03 0.99 0.97 88 1009.4
20260505181119 15 104 3.2 6.4 0.03 0.99 0.97 88 1009.4
20260505180619 15 113 1.6 9.7 0.03 0.99 0.97 88 1009.5
20260505180119 15 108 1.6 6.4 0.03 0.99 0.97 88 1009.4
20260505175618 16 128 1.6 6.4 0.00 0.99 0.94 88 1009.4
20260505175119 16 169 1.6 8.0 0.00 0.99 0.94 88 1009.4
20260505174619 16 95 1.6 4.8 0.00 0.99 0.94 87 1009.4
20260505173618 16 110 3.2 6.4 0.00 0.99 0.94 87 1009.3
20260505173119 16 86 3.2 6.4 0.00 0.99 0.94 87 1009.3
20260505172619 16 122 3.2 11.3 0.00 0.99 0.94 87 1009.3
20260505172119 16 100 3.2 9.7 0.00 0.99 0.94 87 1009.2
20260505171119 16 81 3.2 6.4 0.00 0.99 0.94 87 1009.3
20260505170619 16 72 1.6 6.4 0.00 0.99 0.94 87 1009.3
20260505170120 16 77 3.2 6.4 0.00 0.99 0.94 87 1009.4
20260505165618 16 67 1.6 6.4 0.00 0.99 0.94 87 1009.3
20260505165119 16 92 1.6 11.3 0.00 0.99 0.94 87 1009.3
20260505164619 16 42 3.2 8.0 0.00 0.99 0.94 87 1009.5
20260505164120 16 104 3.2 12.9 0.00 0.99 0.94 87 1009.5
20260505163619 16 89 3.2 8.0 0.00 0.99 0.94 87 1009.5
20260505163120 16 107 3.2 6.4 0.00 0.99 0.94 87 1009.6
20260505162119 16 149 3.2 8.0 0.00 0.99 0.94 88 1009.7
20260505161619 16 105 4.8 6.4 0.05 0.99 0.94 88 1009.7
20260505161119 16 130 4.8 11.3 0.08 1.02 0.94 88 1009.7
20260505160619 16 115 4.8 11.3 0.13 1.09 0.94 88 1009.7